Culiacan, Mexico

11:38 PM MDT on September 26, 2016 (GMT -0600)
Culiacan International

Weather History for MMCL - October, 2012

Change the Weather History Date:

Saturday, October 27, 2012

  Actual Average Record
Temperature  
Mean Temperature 80 °F -  
Max Temperature 90 °F 92 °F 102 °F (2008)
Min Temperature 66 °F 69 °F 66 °F (2005)
Cooling Degree Days 14    
Growing Degree Days 30 (Base 50)    
Moisture  
Dew Point 70 °F    
Average Humidity 70    
Maximum Humidity 94    
Minimum Humidity 42    
Precipitation  
Precipitation 0.00 in - - ()
Sea Level Pressure  
Sea Level Pressure 29.83 in    
Wind  
Wind Speed 1 mph ()    
Max Wind Speed 7 mph    
Max Gust Speed -    
Visibility 9.1 miles    
Events      
Averages and records for this station are not official NWS values.
T = Trace of Precipitation, MM = Missing Value Source: Averaged Metar Reports

Daily Weather History Graph

Daily Weather History Graph

Search for Another Location

Airport or City:

Trip Planner

Search our weather history database for the weather conditions in past years. The results will help you decide how hot, cold, wet, or windy it might be!

Date:

Astronomy

Oct. 27, 2012 Rise Set
Actual Time 7:14 AM MDT 6:32 PM MDT
Civil Twilight 6:51 AM MDT 6:55 PM MDT
Nautical Twilight 6:24 AM MDT 7:22 PM MDT
Astronomical Twilight 5:57 AM MDT 7:49 PM MDT
Moon 5:14 PM MDT 5:21 AM MDT
Length of Visible Light 12h 04m
Length of Day
11h 18m
Waxing Gibbous, 96% of the Moon is Illuminated
Oct 27
Waxing Gibbous
Oct 29
Full
Nov 6
Last Quarter
Nov 13
New
Nov 20
First Quarter

Hourly Weather History & Observations

Time (MDT) Temp. Heat Index Dew Point Humidity Pressure Visibility Wind Dir Wind Speed Gust Speed Precip Events Conditions
2:55 AM 71 °F - 68 °F 89% 29.86 in 6 mi Calm Calm - -  
5:50 AM 69 °F - 68 °F 94% 29.87 in 6 mi Calm Calm - -  
5:56 AM 71.6 °F - 69.8 °F 94% 29.80 in 10.0 mi Calm Calm - N/A   Clear
6:41 AM 71.6 °F - 69.8 °F 94% 29.81 in 10.0 mi Calm Calm - N/A   Clear
7:45 AM 71.6 °F - 69.8 °F 94% 29.83 in 10.0 mi Calm Calm - N/A   Clear
8:45 AM 75.2 °F - 69.8 °F 83% 29.77 in 8.0 mi Calm Calm - N/A   Clear
9:43 AM 78.8 °F - 71.6 °F 78% 29.86 in 8.0 mi Calm Calm - N/A   Clear
10:40 AM 82.4 °F 88.2 °F 73.4 °F 74% 29.86 in 10.0 mi Calm Calm - N/A   Clear
11:40 AM 86.0 °F 93.4 °F 73.4 °F 66% 29.83 in 10.0 mi Calm Calm - N/A   Clear
11:50 AM 88 °F - 68 °F 42% 29.85 in 10 mi SW 2.2 mph - -   Haze
12:41 PM 89.6 °F 96.2 °F 71.6 °F 55% 29.83 in 10.0 mi Calm Calm - N/A   Scattered Clouds
1:41 PM 91.4 °F 98.4 °F 71.6 °F 52% 29.80 in 10.0 mi Calm Calm - N/A   Scattered Clouds
2:40 PM 87 °F - 69 °F 46% 29.81 in 10 mi SW 4.5 mph - -   Haze
2:40 PM 93.2 °F 100.5 °F 71.6 °F 49% 29.73 in 10.0 mi SSE 5.8 mph - N/A   Scattered Clouds
3:40 PM 91.4 °F 98.4 °F 71.6 °F 52% 29.78 in 10.0 mi South 6.9 mph - N/A   Scattered Clouds
4:41 PM 89.6 °F 96.2 °F 71.6 °F 55% 29.78 in 10.0 mi SSW 5.8 mph - N/A   Mostly Cloudy
5:40 PM 86.0 °F 93.4 °F 73.4 °F 66% 29.76 in 10.0 mi Calm Calm - N/A   Mostly Cloudy
6:40 PM 82.4 °F 88.2 °F 73.4 °F 74% 29.81 in 10.0 mi Calm Calm - N/A   Mostly Cloudy
7:40 PM 80.6 °F 83.2 °F 68.0 °F 65% 29.83 in 10.0 mi Calm Calm - N/A   Mostly Cloudy
8:40 PM 77 °F - 68 °F 67% 29.91 in 6 mi Calm Calm - -  
8:42 PM 78.8 °F - 68.0 °F 69% 29.82 in 10.0 mi Calm Calm - N/A   Mostly Cloudy
9:40 PM 77.0 °F - 69.8 °F 78% 29.86 in 10.0 mi Calm Calm - N/A   Mostly Cloudy
11:40 PM 72 °F - 66 °F 75% 29.95 in 6 mi Calm Calm - -